[[{"header":{"parameterUnit":"m.s-1","parameterCategory":1,"la1":30.2991,"la2":30.254,"lo1":-89.0895,"lo2":-89.0444,"dy":0.0017,"dx":0.0017,"nx":28,"ny":28,"refTime":"2025-03-27T21:00:00:Z","depth":0,"parameterNumber":2,"parameterNumberName":"U-component_of_WINDS"},"data":[0,0,0,0,0,0,0,0,0,0,0,0,0,0,0,0,0,0,0,0,0,0,0,0,0,0,0,0,0,0,0,0,0,0,0,0,0,0,0,0,0,0,0,0,0,0,0,0,0,0,0,0,0,0,0,0,0,0,-5.547,-5.5471,0,-5.5552,-5.5553,-5.5554,-5.5506,-5.5503,-5.5501,-5.5499,-5.5581,-5.5585,-5.5589,0,0,0,0,0,0,0,0,0,0,0,0,0,-5.5271,-5.5275,-5.547,-5.5471,-5.5472,-5.5552,-5.5553,-5.5554,-5.5506,-5.5503,-5.55,-5.5498,-5.5579,-5.5585,-5.559,0,0,0,0,0,0,0,0,0,0,0,0,0,-5.5356,-5.5277,-5.547,-5.5458,-5.5458,-5.5552,-5.5553,-5.5554,-5.5507,-5.5503,-5.55,-5.5496,-5.5578,-5.5584,-5.559,-5.5701,0,0,-5.561,-5.5613,0,0,0,0,0,0,0,0,-5.5351,-5.5363,-5.5459,-5.5459,-5.5459,-5.5515,-5.5513,-5.5603,-5.5507,-5.5488,-5.5499,-5.5495,-5.5562,-5.5569,-5.5592,-5.5704,-5.5708,-5.5611,-5.5615,-5.5618,-5.562,0,0,0,0,0,0,0,-5.5345,-5.5359,-5.5503,-5.546,-5.546,-5.5448,-5.5456,-5.553,-5.5543,-5.5489,-5.5486,-5.5497,-5.5561,-5.5586,-5.5594,-5.5709,-5.5611,-5.5617,-5.5621,-5.5623,-5.5915,-5.5919,0,0,0,0,0,0,-5.5341,-5.5355,-5.55,-5.5505,-5.5395,-5.5454,-5.5464,-5.5501,-5.5542,-5.5545,-5.5499,-5.5494,-5.5577,-5.5586,-5.5596,-5.5727,-5.5618,-5.5624,-5.5628,-5.5911,-5.5916,-5.592,0,0,0,0,0,0,-5.5336,-5.5354,-5.5497,-5.5429,-5.5446,-5.5462,-5.5503,-5.5504,-5.5529,-5.555,-5.5552,-5.5523,-5.5574,-5.5587,-5.5675,-5.5729,-5.5627,-5.5633,-5.5907,-5.5913,-5.5918,-5.599,0,0,0,0,0,0,-5.5331,-5.5353,-5.5395,-5.543,-5.545,-5.5574,-5.5507,-5.5508,-5.554,-5.5534,-5.5572,-5.5575,-5.5572,-5.5666,-5.5682,-5.5736,-5.5638,-5.5902,-5.5909,-5.5916,-5.5983,-5.5997,-5.601,0,0,0,0,0,-5.5324,-5.5412,-5.5397,-5.5415,-5.5503,-5.5578,-5.5589,-5.5584,-5.5545,-5.5587,-5.5601,-5.5574,-5.5721,-5.5675,-5.5692,-5.575,-5.5898,-5.5907,-5.5916,-5.5976,-5.5994,-5.601,0,0,0,0,0,0,-5.5381,-5.5416,-5.54,-5.5502,-5.5538,-5.5569,-5.5622,-5.5604,-5.565,-5.5642,-5.5634,-5.5643,-5.5734,-5.5751,-5.5699,-5.5859,-5.5804,-5.5816,-5.5844,-5.5861,-5.5874,-5.5867,-5.5643,0,0,0,0,0,-5.5406,-5.5464,-5.5491,-5.5578,-5.5597,-5.5607,-5.5639,-5.5633,-5.5668,-5.5683,-5.5703,-5.5738,-5.5792,-5.5828,-5.5879,-5.5986,-5.5993,-5.6034,-5.6048,-5.6059,-5.6069,-5.6126,-5.6144,-5.5949,-5.5948,-5.5948,0,0,-5.5457,-5.5483,-5.552,-5.559,-5.5617,-5.5676,-5.5619,-5.5685,-5.5729,-5.5693,-5.5776,-5.5793,-5.5832,-5.5929,-5.5973,-5.5946,-5.6125,-5.607,-5.6079,-5.6083,-5.6137,-5.6155,-5.6171,-5.5954,-5.5953,-5.5952,0,0,-5.558,-5.5606,-5.5681,-5.5709,-5.575,-5.5757,-5.5775,-5.581,-5.582,-5.5904,-5.5878,-5.593,-5.6024,-5.6052,-5.6079,-5.6215,-5.6191,-5.6232,-5.6302,-5.6357,-5.6373,-5.6386,-5.6433,-5.645,-5.6242,-5.6243,-5.6243,0,-5.5638,-5.5727,-5.5722,-5.579,-5.5821,-5.5792,-5.5868,-5.5895,-5.5951,-5.5973,-5.5942,-5.6059,-5.6084,-5.6187,-5.622,-5.6244,-5.6263,-5.6226,-5.6371,-5.6385,-5.6397,-5.6442,-5.6459,-5.6247,-5.6247,-5.6246,-5.6246,0,-5.5795,-5.5857,-5.5913,-5.5968,-5.6006,-5.6077,-5.6083,-5.6122,-5.6113,-5.6123,-5.6209,-5.6237,-5.6293,-5.6318,-5.631,-5.642,-5.6402,-5.6372,-5.6316,-5.642,-5.6462,-5.6479,-5.6254,-5.6252,-5.6251,-5.625,0,0,-5.5954,-5.6007,-5.6027,-5.6051,-5.6095,-5.6143,-5.6213,-5.6269,-5.6302,-5.6342,-5.6399,-5.648,-5.6452,-5.6483,-5.6478,-5.6527,-5.6631,-5.649,-5.6491,-5.6514,-5.6753,-5.6774,-5.6794,-5.6617,-5.662,-5.6623,-5.6749,0,-5.6078,-5.6201,-5.6199,-5.6313,-5.6369,-5.6344,-5.6405,-5.6438,-5.645,-5.6499,-5.6512,-5.6568,-5.6528,-5.6546,-5.6594,-5.6608,-5.6678,-5.6599,-5.6669,-5.6671,-5.6657,-5.6816,-5.6838,-5.6955,-5.6765,-5.6768,-5.677,0,-5.6239,-5.6285,-5.6404,-5.6439,-5.6463,-5.6518,-5.6568,-5.6617,-5.6654,-5.6659,-5.6694,-5.6682,-5.6752,-5.6697,-5.6793,-5.674,-5.6768,-5.678,-5.6784,-5.6789,-5.6725,-5.6822,-5.6993,-5.701,-5.6796,-5.6794,-5.6792,0,-5.6341,-5.6432,-5.6515,-5.6537,-5.6581,-5.662,-5.664,-5.6674,-5.6708,-5.6752,-5.6774,-5.6826,-5.6854,-5.6895,-5.6897,-5.6856,-5.6994,-5.6939,-5.6999,-5.6999,-5.7027,-5.7024,-5.7203,-5.7049,-5.7049,-5.7049,-5.7048,0,-5.6478,-5.6552,-5.6561,-5.6612,-5.6693,-5.6692,-5.6772,-5.6788,-5.6819,-5.6872,-5.6854,-5.6904,-5.6905,-5.6956,-5.6958,-5.7037,-5.7051,-5.7056,-5.7055,-5.7056,-5.7055,-5.7073,-5.7064,-5.7053,-5.7052,-5.7052,-5.7051,0,-5.6605,-5.6614,-5.6703,-5.6738,-5.6748,-5.6807,-5.6836,-5.6884,-5.6895,-5.6962,-5.6978,-5.6993,-5.7053,-5.7059,-5.7128,-5.713,-5.7225,-5.7216,-5.7212,-5.721,-5.7269,-5.7262,-5.7462,-5.7488,-5.732,-5.7322,-5.7323,0,-5.6691,-5.6747,-5.6788,-5.6822,-5.6845,-5.6901,-5.6935,-5.6936,-5.6972,-5.7019,-5.7061,-5.7119,-5.7165,-5.7261,-5.7278,-5.7331,-5.7322,-5.7389,-5.733,-5.7329,-5.7321,-5.7316,-5.7321,-5.7399,-5.7401,-5.7403,-5.7404,0,-5.6842,-5.6844,-5.6894,-5.6947,-5.6988,-5.7029,-5.7068,-5.7097,-5.7103,-5.7144,-5.7205,-5.7241,-5.7312,-5.7369,-5.7421,-5.7441,-5.7423,-5.7423,-5.7439,-5.744,-5.7434,-5.7436,-5.7241,-5.7418,-5.7416,-5.7415,-5.7414,-5.7414,-5.6949,-5.6997,-5.7034,-5.7091,-5.712,-5.7157,-5.7203,-5.722,-5.7271,-5.7328,-5.7326,-5.7393,-5.7429,-5.7497,-5.7521,-5.7573,-5.755,-5.7574,-5.758,-5.7585,-5.759,-5.7428,-5.7582,-5.7582,-5.7582,-5.7581,-5.7581,0,-5.7098,-5.712,-5.7173,-5.7227,-5.7272,-5.7253,-5.7295,-5.7333,-5.7392,-5.7428,-5.7473,-5.7543,-5.7598,-5.7621,-5.7675,-5.7712,-5.7705,-5.7726,-5.7722,-5.7727,-5.7608,-5.7588,-5.773,-5.773,-5.773,-5.773,-5.773,-5.773,-5.718,-5.726,-5.7267,-5.7362,-5.7383,-5.7449,-5.7474,-5.7508,-5.7536,-5.7614,-5.766,-5.7675,-5.7705,-5.7762,-5.7811,-5.7817,-5.7836,-5.786,-5.7862,-5.775,-5.7735,-5.7721,-5.7701,-5.7865,-5.7865,-5.7975,-5.7976,-5.7977]},{"header":{"parameterUnit":"m.s-1","parameterCategory":1,"la1":30.2991,"la2":30.254,"lo1":-89.0895,"lo2":-89.0444,"dy":0.0017,"dx":0.0017,"nx":28,"ny":28,"refTime":"2025-03-27T21:00:00:Z","depth":0,"parameterNumber":3,"parameterNumberName":"V-component_of_WINDS"},"data":[0,0,0,0,0,0,0,0,0,0,0,0,0,0,0,0,0,0,0,0,0,0,0,0,0,0,0,0,0,0,0,0,0,0,0,0,0,0,0,0,0,0,0,0,0,0,0,0,0,0,0,0,0,0,0,0,0,0,2.4003,2.4004,0,2.4122,2.4123,2.4125,2.4166,2.4166,2.4165,2.4165,2.4285,2.4289,2.4292,0,0,0,0,0,0,0,0,0,0,0,0,0,2.3812,2.3815,2.4003,2.4004,2.4006,2.4122,2.4123,2.4125,2.4166,2.4166,2.4165,2.4164,2.4284,2.4288,2.4293,0,0,0,0,0,0,0,0,0,0,0,0,0,2.3909,2.3816,2.4003,2.404,2.4045,2.4121,2.4123,2.4125,2.4166,2.4166,2.4165,2.4164,2.4283,2.4288,2.4293,2.434,0,0,2.431,2.4312,0,0,0,0,0,0,0,0,2.3904,2.3916,2.4033,2.4038,2.4043,2.4129,2.41,2.4197,2.4166,2.412,2.4165,2.4164,2.4233,2.4243,2.4267,2.4346,2.4351,2.431,2.4314,2.4316,2.4317,0,0,0,0,0,0,0,2.3897,2.3911,2.405,2.4035,2.4041,2.4052,2.4065,2.4119,2.4179,2.4124,2.4127,2.4141,2.4236,2.4261,2.427,2.4353,2.431,2.4315,2.4318,2.432,2.448,2.4481,0,0,0,0,0,0,2.3884,2.3906,2.4046,2.4054,2.397,2.4056,2.407,2.4102,2.4179,2.419,2.4141,2.4142,2.4252,2.4263,2.4274,2.4337,2.4316,2.4321,2.4324,2.4479,2.448,2.4482,0,0,0,0,0,0,2.388,2.3896,2.4041,2.3981,2.4,2.406,2.4095,2.4104,2.413,2.4192,2.4203,2.4156,2.4252,2.4267,2.4324,2.4341,2.4323,2.4328,2.4478,2.448,2.4481,2.446,0,0,0,0,0,0,2.3874,2.3894,2.3912,2.3981,2.4003,2.4089,2.4096,2.4107,2.4139,2.4142,2.4209,2.4219,2.4253,2.4316,2.433,2.4348,2.4333,2.4477,2.4479,2.4481,2.446,2.4461,2.4462,0,0,0,0,0,2.3867,2.3901,2.3913,2.393,2.4027,2.409,2.4103,2.4142,2.414,2.416,2.42,2.4217,2.4337,2.4322,2.4337,2.4358,2.4476,2.4478,2.448,2.4459,2.4461,2.4462,0,0,0,0,0,0,2.3832,2.391,2.3925,2.3982,2.4029,2.4097,2.4122,2.4141,2.419,2.419,2.4236,2.425,2.4305,2.4337,2.4319,2.4409,2.4408,2.4413,2.4386,2.4388,2.4389,2.438,2.4337,0,0,0,0,0,2.3831,2.3875,2.3942,2.3985,2.4009,2.4061,2.409,2.4116,2.4167,2.4187,2.4231,2.428,2.4329,2.436,2.4409,2.4465,2.4481,2.4487,2.4488,2.4488,2.4493,2.4527,2.4531,2.4489,2.4489,2.4489,0,0,2.3828,2.3877,2.3902,2.398,2.402,2.4066,2.4078,2.4125,2.416,2.4194,2.4252,2.4287,2.4344,2.4402,2.443,2.443,2.4508,2.4491,2.4491,2.4495,2.453,2.4534,2.4538,2.449,2.449,2.449,0,0,2.3848,2.3889,2.3931,2.3972,2.4033,2.4068,2.4078,2.4144,2.4169,2.4228,2.4255,2.4297,2.438,2.4421,2.4452,2.4491,2.4509,2.4506,2.4511,2.4544,2.4548,2.4551,2.4567,2.4572,2.451,2.451,2.451,0,2.3838,2.3909,2.395,2.3998,2.4032,2.4066,2.411,2.4147,2.422,2.4243,2.4243,2.435,2.4391,2.446,2.447,2.4494,2.4508,2.4498,2.4544,2.4548,2.4551,2.4567,2.4572,2.4509,2.4509,2.4509,2.4509,0,2.3894,2.3943,2.3969,2.4041,2.4078,2.4123,2.4173,2.4205,2.4229,2.4264,2.4326,2.4376,2.4437,2.4455,2.4477,2.4528,2.4527,2.4535,2.4534,2.4554,2.4569,2.4575,2.4508,2.4508,2.4508,2.4509,0,0,2.3893,2.3989,2.3999,2.4033,2.4104,2.4143,2.419,2.425,2.4278,2.4328,2.437,2.4441,2.445,2.4486,2.4514,2.4543,2.4573,2.4547,2.455,2.4552,2.4634,2.4629,2.4635,2.4585,2.4587,2.4588,2.463,0,2.3923,2.401,2.4051,2.412,2.4167,2.4202,2.4244,2.4292,2.4327,2.4372,2.4411,2.4461,2.4468,2.449,2.4521,2.4563,2.459,2.456,2.4626,2.4628,2.4611,2.4642,2.4636,2.4673,2.4636,2.4637,2.4638,0,2.3969,2.4022,2.4096,2.4164,2.4185,2.4222,2.4282,2.4325,2.4381,2.4405,2.4446,2.4474,2.4527,2.4522,2.4596,2.4575,2.4605,2.463,2.4632,2.464,2.4634,2.4652,2.4686,2.4692,2.4647,2.4647,2.4646,0,2.3964,2.4052,2.4109,2.4137,2.4217,2.4243,2.4277,2.4333,2.4368,2.4421,2.4444,2.4501,2.4533,2.4577,2.462,2.4613,2.4691,2.469,2.4713,2.4712,2.4728,2.4726,2.4767,2.4745,2.4745,2.4745,2.4745,0,2.3993,2.4038,2.4108,2.4142,2.4194,2.4241,2.4291,2.4328,2.4378,2.4421,2.4455,2.4495,2.4548,2.4596,2.4629,2.4687,2.47,2.4722,2.473,2.4719,2.4717,2.4739,2.4738,2.4746,2.4746,2.4746,2.4745,0,2.3995,2.4043,2.4108,2.418,2.4199,2.4234,2.4296,2.4332,2.437,2.4425,2.444,2.4499,2.4557,2.4604,2.4679,2.4702,2.4762,2.4771,2.4743,2.4748,2.4769,2.4767,2.4827,2.4838,2.4807,2.4807,2.4807,0,2.4011,2.4047,2.4124,2.4156,2.4191,2.4241,2.4278,2.4326,2.4362,2.4431,2.4459,2.4519,2.457,2.4661,2.4711,2.4769,2.478,2.4798,2.4789,2.4778,2.4783,2.478,2.4785,2.4798,2.4798,2.4798,2.4799,0,2.4035,2.4059,2.411,2.4171,2.4213,2.4263,2.4314,2.4338,2.4396,2.4435,2.4495,2.4535,2.4613,2.4673,2.4737,2.4773,2.4796,2.4801,2.481,2.4799,2.4782,2.4793,2.4747,2.4799,2.4799,2.4799,2.4799,2.4799,2.4046,2.408,2.4141,2.4198,2.4241,2.4289,2.4327,2.437,2.4421,2.4489,2.4515,2.4577,2.4635,2.4724,2.4761,2.4811,2.4813,2.4825,2.4828,2.4831,2.483,2.4774,2.4822,2.4822,2.4822,2.4822,2.4822,0,2.4073,2.4115,2.4167,2.4238,2.4283,2.4302,2.436,2.4396,2.4451,2.4504,2.4554,2.4624,2.4683,2.4739,2.4801,2.483,2.4842,2.4845,2.4844,2.4852,2.4824,2.4811,2.4834,2.4834,2.4834,2.4834,2.4834,2.4834,2.4093,2.4153,2.4183,2.4266,2.4307,2.4369,2.4401,2.4445,2.4488,2.4565,2.4615,2.4651,2.4706,2.4773,2.4829,2.4844,2.4865,2.4866,2.4883,2.4856,2.4854,2.4852,2.484,2.487,2.487,2.4908,2.4908,2.4908]}]]